TimeCST,TemperatureF,Dew PointF,Humidity,Sea Level PressureIn,VisibilityMPH,Wind Direction,Wind SpeedMPH,Gust SpeedMPH,PrecipitationIn,Events,Conditions,WindDirDegrees,DateUTC
12:13 AM,-11.2,-16.6,77,30.10,10.0,NNW,3.5,-,N/A,,Clear,330,2012-12-10 06:13:00
12:34 AM,-11.2,-16.6,77,30.09,10.0,Calm,Calm,-,N/A,,Clear,0,2012-12-10 06:34:00
12:53 AM,-11.2,-14.8,84,30.07,10.0,Calm,Calm,-,N/A,,Clear,0,2012-12-10 06:53:00
1:13 AM,-11.2,-14.8,84,30.06,10.0,Calm,Calm,-,N/A,,Clear,0,2012-12-10 07:13:00
1:34 AM,-11.2,-16.6,77,30.05,10.0,Calm,Calm,-,N/A,,Clear,0,2012-12-10 07:34:00
1:53 AM,-14.8,-18.4,84,30.05,10.0,NNW,3.5,-,N/A,,Clear,340,2012-12-10 07:53:00
2:13 AM,-14.8,-20.2,77,30.05,10.0,NW,3.5,-,N/A,,Clear,320,2012-12-10 08:13:00
2:53 AM,-14.8,-20.2,77,30.04,10.0,Calm,Calm,-,N/A,,Clear,0,2012-12-10 08:53:00
3:13 AM,-14.8,-18.4,84,30.03,10.0,NNW,3.5,-,N/A,,Clear,340,2012-12-10 09:13:00
3:34 AM,-14.8,-18.4,84,30.02,10.0,Calm,Calm,-,N/A,,Clear,0,2012-12-10 09:34:00
3:53 AM,-13.0,-18.4,77,30.01,10.0,Calm,Calm,-,N/A,,Clear,0,2012-12-10 09:53:00
4:13 AM,-13.0,-18.4,77,30.00,10.0,Calm,Calm,-,N/A,,Clear,0,2012-12-10 10:13:00
4:33 AM,-14.8,-18.4,84,30.00,10.0,Calm,Calm,-,N/A,,Clear,0,2012-12-10 10:33:00
4:53 AM,-13.0,-18.4,77,29.99,10.0,Calm,Calm,-,N/A,,Clear,0,2012-12-10 10:53:00
5:13 AM,-14.8,-18.4,84,29.98,10.0,Calm,Calm,-,N/A,,Clear,0,2012-12-10 11:13:00
5:33 AM,-14.8,-20.2,77,29.97,10.0,Calm,Calm,-,N/A,,Clear,0,2012-12-10 11:33:00
5:53 AM,-16.6,-20.2,84,29.96,10.0,Calm,Calm,-,N/A,,Clear,0,2012-12-10 11:53:00
6:13 AM,-14.8,-20.2,77,29.95,10.0,Calm,Calm,-,N/A,,Clear,0,2012-12-10 12:13:00
6:34 AM,-14.8,-18.4,84,29.95,10.0,Calm,Calm,-,N/A,,Clear,0,2012-12-10 12:34:00
6:53 AM,-14.8,-18.4,84,29.95,10.0,Calm,Calm,-,N/A,,Clear,0,2012-12-10 12:53:00
7:14 AM,-16.6,-20.2,84,29.94,10.0,Calm,Calm,-,N/A,,Clear,0,2012-12-10 13:14:00
7:33 AM,-14.8,-18.4,84,29.93,10.0,Calm,Calm,-,N/A,,Scattered Clouds,0,2012-12-10 13:33:00
7:54 AM,-14.8,-18.4,84,29.93,10.0,Calm,Calm,-,N/A,,Overcast,0,2012-12-10 13:54:00
8:13 AM,-13.0,-16.6,84,29.92,10.0,Calm,Calm,-,N/A,,Overcast,0,2012-12-10 14:13:00
8:34 AM,-9.4,-13.0,84,29.92,10.0,Calm,Calm,-,N/A,,Overcast,0,2012-12-10 14:34:00
8:53 AM,-7.6,-11.2,84,29.91,10.0,Calm,Calm,-,N/A,,Overcast,0,2012-12-10 14:53:00
9:13 AM,-2.2,-5.8,85,29.91,3.0,South,10.4,-,N/A,,Overcast,170,2012-12-10 15:13:00
9:33 AM,-2.2,-7.6,78,29.90,5.0,South,10.4,-,N/A,,Overcast,170,2012-12-10 15:33:00
9:53 AM,-2.2,-7.6,78,29.89,-9999.0,South,9.2,-,N/A,,Overcast,170,2012-12-10 15:53:00
10:14 AM,-2.2,-5.8,85,29.89,-9999.0,SSE,9.2,-,N/A,,Overcast,160,2012-12-10 16:14:00
10:33 AM,-2.2,-5.8,85,29.88,-9999.0,South,10.4,-,N/A,,Overcast,170,2012-12-10 16:33:00
10:53 AM,-2.2,-5.8,85,29.88,-9999.0,SSE,9.2,-,N/A,,Mostly Cloudy,160,2012-12-10 16:53:00
11:13 AM,-2.2,-7.6,78,29.87,-9999.0,SSE,11.5,-,N/A,,Overcast,160,2012-12-10 17:13:00
11:53 AM,-2.2,-5.8,85,29.85,-9999.0,SSE,10.4,-,N/A,,Overcast,160,2012-12-10 17:53:00
12:14 PM,-9999,-9999,N/A,29.84,-9999.0,SSE,11.5,-,N/A,,Unknown,160,2012-12-10 18:14:00
12:33 PM,-0.4,-5.8,78,29.83,7.0,SSE,10.4,-,N/A,,Scattered Clouds,160,2012-12-10 18:33:00
12:53 PM,-0.4,-4.0,85,29.83,3.0,South,9.2,-,N/A,Snow,Light Snow,170,2012-12-10 18:53:00
1:14 PM,-0.4,-5.8,78,29.82,10.0,SSE,9.2,-,N/A,,Scattered Clouds,150,2012-12-10 19:14:00
1:33 PM,-0.4,-4.0,85,29.81,10.0,SSE,9.2,-,N/A,,Clear,150,2012-12-10 19:33:00
1:53 PM,1.4,-2.2,85,29.80,10.0,South,9.2,-,N/A,,Clear,170,2012-12-10 19:53:00
2:13 PM,1.4,-2.2,85,29.80,10.0,South,9.2,-,N/A,,Clear,170,2012-12-10 20:13:00
2:33 PM,1.4,-2.2,85,29.79,10.0,South,10.4,-,N/A,,Clear,170,2012-12-10 20:33:00
2:54 PM,1.4,-2.2,85,29.78,10.0,South,8.1,-,N/A,,Clear,170,2012-12-10 20:54:00
3:13 PM,3.2,-2.2,78,29.78,10.0,SSE,5.8,-,N/A,,Clear,150,2012-12-10 21:13:00
3:54 PM,5.0,-0.4,78,29.77,10.0,SSE,9.2,-,N/A,,Clear,160,2012-12-10 21:54:00
4:13 PM,6.8,-0.4,72,29.77,10.0,SSE,8.1,-,N/A,,Clear,150,2012-12-10 22:13:00
4:33 PM,6.8,-0.4,72,29.76,10.0,SSE,8.1,-,N/A,,Clear,150,2012-12-10 22:33:00
4:54 PM,6.8,-0.4,72,29.75,10.0,SE,8.1,-,N/A,,Clear,140,2012-12-10 22:54:00
5:13 PM,6.8,1.4,79,29.75,10.0,SE,8.1,-,N/A,,Mostly Cloudy,140,2012-12-10 23:13:00
5:33 PM,6.8,1.4,79,29.74,10.0,SE,6.9,-,N/A,,Mostly Cloudy,140,2012-12-10 23:33:00
5:54 PM,6.8,1.4,79,29.74,10.0,SE,9.2,-,N/A,,Scattered Clouds,140,2012-12-10 23:54:00
6:13 PM,8.6,3.2,79,29.74,10.0,SSE,10.4,-,N/A,,Mostly Cloudy,150,2012-12-11 00:13:00
6:33 PM,8.6,3.2,79,29.73,10.0,SSE,13.8,-,N/A,,Overcast,150,2012-12-11 00:33:00
6:54 PM,8.6,3.2,79,29.71,10.0,SSE,13.8,-,N/A,,Mostly Cloudy,150,2012-12-11 00:54:00
7:13 PM,8.6,3.2,79,29.71,10.0,SSE,13.8,-,N/A,,Scattered Clouds,150,2012-12-11 01:13:00
7:33 PM,8.6,3.2,79,29.71,10.0,SSE,12.7,-,N/A,,Mostly Cloudy,150,2012-12-11 01:33:00
7:53 PM,8.6,3.2,79,29.71,10.0,SSE,12.7,-,N/A,,Overcast,160,2012-12-11 01:53:00
8:13 PM,8.6,3.2,79,29.71,10.0,SSE,11.5,-,N/A,,Overcast,160,2012-12-11 02:13:00
8:33 PM,10.4,5.0,79,29.70,10.0,South,13.8,-,N/A,,Overcast,170,2012-12-11 02:33:00
8:53 PM,10.4,6.8,85,29.70,10.0,South,12.7,-,N/A,,Overcast,170,2012-12-11 02:53:00
9:13 PM,10.4,6.8,85,29.69,10.0,South,16.1,-,N/A,,Overcast,170,2012-12-11 03:13:00
9:33 PM,10.4,6.8,85,29.69,3.0,South,13.8,-,N/A,Snow,Light Snow,180,2012-12-11 03:33:00
9:53 PM,10.4,6.8,85,29.69,7.0,South,15.0,-,N/A,,Overcast,170,2012-12-11 03:53:00
10:13 PM,10.4,8.6,92,29.68,3.0,South,15.0,-,N/A,Snow,Light Snow,180,2012-12-11 04:13:00
10:33 PM,10.4,8.6,92,29.68,2.5,South,12.7,-,N/A,Snow,Light Snow,180,2012-12-11 04:33:00
10:54 PM,10.4,8.6,92,29.68,2.0,South,8.1,-,N/A,Snow,Light Snow,190,2012-12-11 04:54:00
11:13 PM,10.4,6.8,85,29.68,2.0,South,5.8,-,N/A,Snow,Light Snow,190,2012-12-11 05:13:00
11:33 PM,10.4,8.6,92,29.67,1.8,South,6.9,-,N/A,Snow,Light Snow,180,2012-12-11 05:33:00
11:54 PM,10.4,8.6,92,29.66,2.5,South,9.2,-,N/A,Snow,Light Snow,190,2012-12-11 05:54:00